Tracking 34408 objects as of 13-Jun-2026
HD Live streaming from Space Station
objects crossing your sky now

RADUGA 7

Track RADUGA 7 now!
RADUGA 7 is classified as:


NORAD ID: 12003
Int'l Code: 1980-081A
Perigee: 35,737.9 km
Apogee: 35,829.2 km
Inclination: 6.0 °
Period: 1,435.6 minutes
Semi major axis: 42154 km
RCS: 7.9432 m2 (large)
Launch date: October 5, 1980
Source: Commonwealth of Independent States (former USSR) (CIS)
Launch site: TYURATAM MISSILE AND SPACE COMPLEX (TTMTR)
Your satellite tracking list
Your tracking list is empty




NASA's NSSDC Master Catalog

Two Line Element Set (TLE):
1 12003U 80081A   26164.25597838 -.00000222  00000-0  00000+0 0  9995
2 12003   5.9575 289.2536 0010831 317.3903  72.2727  1.00308178123273
Source of the keplerian elements: AFSPC